Hyannis, MA

1:30 PM EDT on June 23, 2017 (GMT -0400)
Barnstable Municipal-Boardman-Polando Field

Weather History for KHYA - June, 2013

Change the Weather History Date:

Friday, June 21, 2013

  Actual Average Record
Temperature  
Mean Temperature 68 °F -  
Max Temperature 75 °F 74 °F 91 °F (2012)
Min Temperature 62 °F 59 °F 19 °F (2006)
Cooling Degree Days 4    
Growing Degree Days 18 (Base 50)    
Moisture  
Dew Point 52 °F    
Average Humidity 57    
Maximum Humidity 70    
Minimum Humidity 41    
Precipitation  
Precipitation 0.00 in - - ()
Sea Level Pressure  
Sea Level Pressure 30.26 in    
Wind  
Wind Speed 13 mph (SW)    
Max Wind Speed 20 mph    
Max Gust Speed 29 mph    
Visibility 10 miles    
Events      
Averages and records for this station are not official NWS values.
T = Trace of Precipitation, MM = Missing Value Source: NWS Daily Summary

Daily Weather History Graph

Daily Weather History Graph

Search for Another Location

Airport or City:

Trip Planner

Search our weather history database for the weather conditions in past years. The results will help you decide how hot, cold, wet, or windy it might be!

Date:

Astronomy

Jun. 21, 2013 Rise Set
Actual Time 5:06 AM EDT 8:19 PM EDT
Civil Twilight 4:32 AM EDT 8:53 PM EDT
Nautical Twilight 3:48 AM EDT 9:37 PM EDT
Astronomical Twilight 2:55 AM EDT 10:30 PM EDT
Moon 6:25 PM EDT (6/21) 3:20 AM EDT (6/21)
Length of Visible Light 16h 20m
Length of Day
15h 12m
Waxing Gibbous, 95% of the Moon is Illuminated
Jun 21
Waxing Gibbous
Jun 23
Full
Jun 30
Last Quarter
Jul 8
New
Jul 15
First Quarter

Hourly Weather History & Observations

Time (EDT) Temp. Dew Point Humidity Pressure Visibility Wind Dir Wind Speed Gust Speed Precip Events Conditions
12:56 AM 63.0 °F 50.0 °F 63% 30.28 in 10.0 mi SW 10.4 mph - N/A   Clear
1:56 AM 62.1 °F 48.9 °F 62% 30.27 in 10.0 mi SW 10.4 mph - N/A   Clear
2:56 AM 63.0 °F 50.0 °F 63% 30.27 in 10.0 mi SSW 9.2 mph - N/A   Clear
3:56 AM 62.1 °F 52.0 °F 70% 30.27 in 10.0 mi SW 9.2 mph - N/A   Clear
4:56 AM 62.1 °F 51.1 °F 67% 30.27 in 10.0 mi SW 11.5 mph - N/A   Clear
5:56 AM 63.0 °F 52.0 °F 67% 30.27 in 10.0 mi SSW 9.2 mph - N/A   Clear
6:56 AM 64.9 °F 53.1 °F 65% 30.28 in 10.0 mi SW 15.0 mph 21.9 mph N/A   Partly Cloudy
7:56 AM 66.9 °F 54.0 °F 63% 30.28 in 10.0 mi SW 12.7 mph 20.7 mph N/A   Clear
8:56 AM 69.1 °F 52.0 °F 54% 30.27 in 10.0 mi SW 16.1 mph 25.3 mph N/A   Clear
9:56 AM 70.0 °F 53.1 °F 55% 30.27 in 10.0 mi SW 17.3 mph 23.0 mph N/A   Clear
10:56 AM 71.1 °F 55.0 °F 57% 30.27 in 10.0 mi SSW 15.0 mph - N/A   Clear
11:56 AM 73.9 °F 48.9 °F 41% 30.27 in 10.0 mi SW 17.3 mph 26.5 mph N/A   Clear
12:56 PM 75.0 °F 51.1 °F 43% 30.27 in 10.0 mi SW 19.6 mph 28.8 mph N/A   Clear
1:56 PM 73.9 °F 55.0 °F 52% 30.25 in 10.0 mi SW 17.3 mph 24.2 mph N/A   Clear
2:56 PM 73.0 °F 55.0 °F 53% 30.25 in 10.0 mi SSW 12.7 mph 21.9 mph N/A   Clear
3:56 PM 73.0 °F 55.0 °F 53% 30.23 in 10.0 mi SSW 17.3 mph - N/A   Clear
4:56 PM 72.0 °F 55.0 °F 55% 30.24 in 10.0 mi SW 15.0 mph 23.0 mph N/A   Clear
5:56 PM 72.0 °F 54.0 °F 53% 30.23 in 10.0 mi SW 15.0 mph - N/A   Clear
6:56 PM 71.1 °F 51.1 °F 49% 30.24 in 10.0 mi WSW 12.7 mph - N/A   Clear
7:56 PM 68.0 °F 48.0 °F 49% 30.25 in 10.0 mi WSW 17.3 mph 24.2 mph N/A   Clear
8:56 PM 66.9 °F 48.9 °F 52% 30.25 in 10.0 mi SW 16.1 mph - N/A   Partly Cloudy
9:56 PM 66.0 °F 51.1 °F 59% 30.25 in 10.0 mi SW 12.7 mph - N/A   Clear
10:56 PM 64.9 °F 52.0 °F 63% 30.25 in 10.0 mi SW 12.7 mph - N/A   Clear
11:56 PM 64.9 °F 53.1 °F 65% 30.25 in 10.0 mi SW 12.7 mph - N/A   Clear